Location: Foligno
(42.9600°N, 12.7050°E)
Time: 17:34:21
(UTC+02:00)

ISS - Pass Details

Date: 01 June 2020
Orbit: 417 x 420 km, 51.6° (Epoch: 26 May)

Event Time Altitude Azimuth Distance (km) Brightness Sun altitude
Rises 21:35:48 0° 302° (WNW) 2,365 2.2 -8.7°
Reaches altitude 10° 21:37:54 10° 302° (WNW) 1,499 0.6 -9.0°
Maximum altitude 21:41:16 81° 214° (SW) 427 -3.8 -9.5°
Enters shadow 21:43:59 15° 128° (SE) 1,242 -2.0 -9.8°
